When you browse on this site, cookies collect data to enhance your experience and personalize the content and advertising you see.
Visit our Privacy Policy to learn more. By continuing to use the site, you agree to this use of cookies and data.

Meteo pe oră la Ali Bayramli

Astăzi, 12 August, Miercuri

Timp Temperatura Precipitaţii Vânt Presiune Umiditate
00:00 +26°C° 0 mm 4 m/s 755 mmHg 50%
01:00 +26°C° 0 mm 4 m/s 755 mmHg 51%
02:00 +25°C° 0 mm 3 m/s 755 mmHg 52%
03:00 +25°C° 0 mm 3 m/s 755 mmHg 53%
04:00 +25°C° 0 mm 3 m/s 755 mmHg 52%
05:00 +25°C° 0 mm 3 m/s 756 mmHg 52%
06:00 +25°C° 0 mm 3 m/s 756 mmHg 51%
07:00 +27°C° 0 mm 4 m/s 756 mmHg 45%
08:00 +29°C° 0 mm 4 m/s 756 mmHg 40%
09:00 +32°C° 0 mm 4 m/s 756 mmHg 35%
10:00 +33°C° 0 mm 3 m/s 756 mmHg 33%
11:00 +34°C° 0 mm 3 m/s 756 mmHg 30%
12:00 +35°C° 0 mm 2 m/s 756 mmHg 28%
13:00 +35°C° 0 mm 4 m/s 755 mmHg 28%
14:00 +36°C° 0 mm 5 m/s 755 mmHg 28%
15:00 +36°C° 0 mm 7 m/s 755 mmHg 29%
16:00 +34°C° 0 mm 7 m/s 755 mmHg 31%
17:00 +33°C° 0 mm 8 m/s 755 mmHg 34%
18:00 +31°C° 0 mm 9 m/s 755 mmHg 37%
19:00 +29°C° 0 mm 8 m/s 755 mmHg 39%
20:00 +29°C° 0 mm 7 m/s 756 mmHg 41%
21:00 +28°C° 0 mm 6 m/s 756 mmHg 43%
22:00 +27°C° 0 mm 5 m/s 756 mmHg 44%
23:00 +27°C° 0 mm 4 m/s 756 mmHg 46%

Mâine, 13 August, Joi

Timp Temperatura Precipitaţii Vânt Presiune Umiditate
00:00 +26°C° 0 mm 4 m/s 756 mmHg 47%
01:00 +26°C° 0 mm 3 m/s 755 mmHg 50%
02:00 +25°C° 0 mm 2 m/s 755 mmHg 52%
03:00 +25°C° 0 mm 2 m/s 755 mmHg 54%
04:00 +25°C° 0 mm 2 m/s 755 mmHg 54%
05:00 +25°C° 0 mm 1 m/s 755 mmHg 53%
06:00 +26°C° 0 mm 1 m/s 755 mmHg 52%
07:00 +27°C° 0 mm 1 m/s 755 mmHg 45%
08:00 +29°C° 0 mm 2 m/s 755 mmHg 39%
09:00 +31°C° 0 mm 2 m/s 755 mmHg 32%
10:00 +32°C° 0 mm 2 m/s 754 mmHg 30%
11:00 +34°C° 0 mm 2 m/s 754 mmHg 28%
12:00 +36°C° 0 mm 2 m/s 754 mmHg 26%
13:00 +36°C° 0 mm 3 m/s 753 mmHg 26%
14:00 +36°C° 0 mm 5 m/s 753 mmHg 26%
15:00 +36°C° 0 mm 6 m/s 752 mmHg 26%
16:00 +35°C° 0 mm 6 m/s 752 mmHg 28%
17:00 +34°C° 0 mm 6 m/s 752 mmHg 30%
18:00 +33°C° 0 mm 6 m/s 752 mmHg 32%
19:00 +32°C° 0 mm 5 m/s 753 mmHg 33%
20:00 +30°C° 0 mm 5 m/s 753 mmHg 35%
21:00 +29°C° 0 mm 4 m/s 753 mmHg 36%
22:00 +28°C° 0 mm 4 m/s 753 mmHg 37%
23:00 +28°C° 0 mm 3 m/s 753 mmHg 37%

Poimâine, 14 August, Vineri

Timp Temperatura Precipitaţii Vânt Presiune Umiditate
00:00 +27°C° 0 mm 3 m/s 753 mmHg 38%
01:00 +27°C° 0 mm 2 m/s 753 mmHg 39%
02:00 +26°C° 0 mm 2 m/s 753 mmHg 39%
03:00 +26°C° 0 mm 2 m/s 753 mmHg 40%
04:00 +26°C° 0 mm 2 m/s 753 mmHg 40%
05:00 +26°C° 0 mm 3 m/s 753 mmHg 41%
06:00 +26°C° 0 mm 3 m/s 753 mmHg 42%
07:00 +29°C° 0 mm 3 m/s 753 mmHg 37%
08:00 +32°C° 0 mm 4 m/s 753 mmHg 33%
09:00 +34°C° 0 mm 4 m/s 753 mmHg 28%
10:00 +35°C° 0 mm 4 m/s 753 mmHg 26%
11:00 +36°C° 0 mm 4 m/s 753 mmHg 25%
12:00 +37°C° 0 mm 4 m/s 753 mmHg 23%
13:00 +38°C° 0 mm 6 m/s 752 mmHg 24%
14:00 +38°C° 0 mm 7 m/s 752 mmHg 26%
15:00 +38°C° 0 mm 9 m/s 752 mmHg 27%
16:00 +35°C° 0 mm 9 m/s 751 mmHg 31%
17:00 +34°C° 0 mm 10 m/s 751 mmHg 35%
18:00 +32°C° 0 mm 10 m/s 751 mmHg 39%
19:00 +32°C° 0 mm 10 m/s 752 mmHg 42%
20:00 +31°C° 0 mm 9 m/s 752 mmHg 44%
21:00 +29°C° 0 mm 9 m/s 753 mmHg 46%
22:00 +28°C° 0 mm 8 m/s 753 mmHg 47%
23:00 +28°C° 0 mm 6 m/s 753 mmHg 48%

15 August, Sâmbătă

Timp Temperatura Precipitaţii Vânt Presiune Umiditate
00:00 +27°C° 0 mm 5 m/s 753 mmHg 49%
01:00 +27°C° 0 mm 5 m/s 753 mmHg 50%
02:00 +27°C° 0 mm 4 m/s 752 mmHg 51%
03:00 +26°C° 0 mm 3 m/s 752 mmHg 52%
04:00 +26°C° 0 mm 3 m/s 753 mmHg 51%
05:00 +26°C° 0 mm 3 m/s 753 mmHg 51%
06:00 +26°C° 0 mm 3 m/s 753 mmHg 51%
07:00 +28°C° 0 mm 4 m/s 753 mmHg 46%
08:00 +30°C° 0 mm 5 m/s 753 mmHg 41%
09:00 +32°C° 0 mm 5 m/s 754 mmHg 36%
10:00 +33°C° 0 mm 6 m/s 754 mmHg 34%
11:00 +33°C° 0 mm 6 m/s 754 mmHg 33%
12:00 +34°C° 0 mm 6 m/s 754 mmHg 32%
13:00 +33°C° 0 mm 8 m/s 754 mmHg 35%
14:00 +33°C° 0 mm 10 m/s 754 mmHg 39%
15:00 +32°C° 0 mm 12 m/s 754 mmHg 42%
16:00 +29°C° 0 mm 12 m/s 754 mmHg 46%
17:00 +28°C° 0 mm 12 m/s 754 mmHg 51%
18:00 +27°C° 0 mm 11 m/s 754 mmHg 55%
19:00 +26°C° 0 mm 11 m/s 755 mmHg 54%
20:00 +26°C° 0 mm 10 m/s 755 mmHg 54%
21:00 +26°C° 0 mm 9 m/s 755 mmHg 53%
22:00 +24°C° 0 mm 8 m/s 755 mmHg 52%
23:00 +24°C° 0 mm 7 m/s 755 mmHg 51%

16 August, Duminică

Timp Temperatura Precipitaţii Vânt Presiune Umiditate
00:00 +24°C° 0 mm 6 m/s 755 mmHg 50%
01:00 +24°C° 0 mm 6 m/s 755 mmHg 51%
02:00 +25°C° 0 mm 5 m/s 755 mmHg 51%
03:00 +23°C° 0 mm 5 m/s 756 mmHg 52%
04:00 +23°C° 0 mm 5 m/s 756 mmHg 52%
05:00 +23°C° 0 mm 4 m/s 756 mmHg 52%
06:00 +25°C° 0 mm 4 m/s 756 mmHg 51%
07:00 +26°C° 0 mm 5 m/s 756 mmHg 48%
08:00 +27°C° 0 mm 5 m/s 756 mmHg 45%
09:00 +29°C° 0 mm 6 m/s 756 mmHg 42%
10:00 +30°C° 0 mm 6 m/s 756 mmHg 39%
11:00 +32°C° 0 mm 6 m/s 756 mmHg 36%
12:00 +33°C° 0 mm 6 m/s 756 mmHg 33%
13:00 +33°C° 0 mm 6 m/s 756 mmHg 32%
14:00 +32°C° 0 mm 7 m/s 756 mmHg 31%
15:00 +32°C° 0 mm 7 m/s 755 mmHg 30%
16:00 +30°C° 0 mm 6 m/s 755 mmHg 33%
17:00 +29°C° 0 mm 6 m/s 755 mmHg 35%
18:00 +28°C° 0 mm 6 m/s 755 mmHg 37%
19:00 +27°C° 0 mm 5 m/s 755 mmHg 41%
20:00 +26°C° 0 mm 4 m/s 755 mmHg 45%
21:00 +25°C° 0 mm 3 m/s 755 mmHg 49%
22:00 +25°C° 0 mm 3 m/s 755 mmHg 51%
23:00 +25°C° 0 mm 3 m/s 754 mmHg 53%

17 August, Luni

Timp Temperatura Precipitaţii Vânt Presiune Umiditate
00:00 +24°C° 0 mm 3 m/s 754 mmHg 55%
01:00 +24°C° 0 mm 3 m/s 754 mmHg 57%
02:00 +24°C° 0 mm 3 m/s 754 mmHg 59%
03:00 +24°C° 0 mm 3 m/s 754 mmHg 61%
04:00 +23°C° 0 mm 4 m/s 754 mmHg 62%
05:00 +23°C° 0 mm 4 m/s 754 mmHg 63%
06:00 +25°C° 0 mm 4 m/s 754 mmHg 64%
07:00 +26°C° 0 mm 4 m/s 754 mmHg 58%
08:00 +27°C° 0 mm 5 m/s 754 mmHg 52%
09:00 +29°C° 0 mm 5 m/s 754 mmHg 46%
10:00 +29°C° 0 mm 6 m/s 754 mmHg 44%
11:00 +30°C° 0 mm 7 m/s 753 mmHg 42%
12:00 +32°C° 0 mm 8 m/s 753 mmHg 40%
13:00 +32°C° 0 mm 9 m/s 753 mmHg 39%
14:00 +31°C° 0 mm 10 m/s 753 mmHg 39%
15:00 +31°C° 0 mm 10 m/s 753 mmHg 38%
16:00 +28°C° 0 mm 11 m/s 754 mmHg 45%
17:00 +27°C° 0 mm 12 m/s 754 mmHg 53%
18:00 +24°C° 0 mm 13 m/s 754 mmHg 60%
19:00 +23°C° 0 mm 12 m/s 754 mmHg 59%
20:00 +23°C° 0 mm 11 m/s 755 mmHg 59%
21:00 +22°C° 0 mm 11 m/s 755 mmHg 58%
22:00 +22°C° 0.1 mm 10 m/s 755 mmHg 59%
23:00 +22°C° 0.1 mm 9 m/s 756 mmHg 60%
Arată mai mult